Location: Ebersheim
(48.3033°N, 7.4991°E)
Time: 15:55:24
(UTC+00:00)

STARLINK-1017 - Pass Details

Date: 27 February 2020
Orbit: 549 x 551 km, 53.0° (Epoch: 08 April)

Event Time Altitude Azimuth Distance (km) Brightness Sun altitude
Rises 18:27:42 0° 282° (WNW) 2,726 9.0 -13.7°
Reaches altitude 10° 18:30:02 10° 289° (WNW) 1,833 7.6 -14.1°
Maximum altitude 18:34:01 42° 1° (N) 792 4.4 -14.7°
Enters shadow 18:36:16 22° 61° (ENE) 1,225 4.9 -15.1°
